Regional Weather Roundup
Issued by NWS

Home | Current Version | Previous Version | Graphics & Text | Print | Product List | Glossary On
Versions: 1 2 3 4 5 6 7 8 9 10 11 12 13 14 15 16 17 18 19 20 21 22 23 24 25 26 27 28 29 30 31 32 33 34 35 36 37 38 39 40 41 42 43 44 45 46 47 48 49 50
000
ASUS43 KBIS 221820
RWRND

NORTH DAKOTA REGIONAL WEATHER ROUNDUP
NATIONAL WEATHER SERVICE BISMARCK ND
100 PM CDT WED OCT 22 2014

NOTE: "FAIR" INDICATES FEW OR NO CLOUDS BELOW 12,000 FEET WITH NO
SIGNIFICANT WEATHER AND/OR OBSTRUCTIONS TO VISIBILITY.


NDZ001>003-009>011-017-221900-
NORTHWEST NORTH DAKOTA

CITY           SKY/WX    TMP DP  RH WIND       PRES   REMARKS
WILLISTON      MOSUNNY   61  41  47 W21G31    29.80S
6HR MIN TEMP:  45; 6HR MAX TEMP:  62;

MINOT          FAIR      58  43  57 SW18G25   29.76F
MINOT AFB      FAIR      58  45  60 W23       29.75S
$$

NDZ018>021-031>035-040>046-221900-
SOUTHWEST NORTH DAKOTA

CITY           SKY/WX    TMP DP  RH WIND       PRES   REMARKS
BISMARCK       PTSUNNY   59  44  57 W12       29.87R
6HR MIN TEMP:  56; 6HR MAX TEMP:  59; 6HR PCP: TRACE;

DICKINSON      SUNNY     61  37  41 W18G31    29.86R
GARRISON         N/A     59  42  53 W17       29.80S
6HR MIN TEMP:  51; 6HR MAX TEMP:  59;

HETTINGER ARPT SUNNY     60  35  39 W21G31    29.93R
$$

NDZ004>008-012>016-024-026-027-054-221900-
NORTHEAST NORTH DAKOTA

CITY           SKY/WX    TMP DP  RH WIND       PRES   REMARKS
GRAND FORKS    CLOUDY    60  45  57 S20G29    29.81S
GRND FRKS AFB  FAIR      65  48  53 S22G30    29.80S
DEVILS LAKE    FAIR      57  45  62 W13       29.73F
$$

NDZ022-023-025-028>030-036>039-047>053-221900-
SOUTHEAST NORTH DAKOTA

CITY           SKY/WX    TMP DP  RH WIND       PRES   REMARKS
FARGO          FAIR      61  44  53 S22G28    29.86F
6HR MIN TEMP:  54; 6HR MAX TEMP:  61;

JAMESTOWN      CLOUDY    58  48  69 W12       29.85R
$$




USA.gov is the U.S. government's official web portal to all federal, state and local government web resources and services.